Location: Boursonne
(49.2024°N, 3.0468°E)
Time: 09:18:40
(UTC+00:00)

Cosmos 2333 Rocket - Pass Details

Date: 03 March 2021
Orbit: 837 x 864 km, 70.8° (Epoch: 11 April)

Event Time Altitude Azimuth Distance (km) Brightness Sun altitude
Rises 20:30:52 0° 220° (SW) 3,393 5.5 -28.9°
Reaches altitude 10° 20:33:20 10° 224° (SW) 2,465 4.8 -29.3°
Maximum altitude 20:38:55 59° 303° (WNW) 985 2.7 -30.1°
Drops below altitude 10° 20:44:35 10° 23° (NNE) 2,499 4.7 -30.9°
Sets 20:47:07 0° 28° (NNE) 3,442 5.4 -31.3°
